TimeCDT,TemperatureF,Dew PointF,Humidity,Sea Level PressureIn,VisibilityMPH,Wind Direction,Wind SpeedMPH,Gust SpeedMPH,PrecipitationIn,Events,Conditions,WindDirDegrees,DateUTC
12:53 AM,46.0,28.9,51,30.19,10.0,West,6.9,-,N/A,,Clear,270,2011-11-04 05:53:00
1:53 AM,42.1,28.9,60,30.18,10.0,NW,5.8,-,N/A,,Clear,320,2011-11-04 06:53:00
2:53 AM,41.0,30.0,65,30.18,10.0,NW,5.8,-,N/A,,Clear,320,2011-11-04 07:53:00
3:53 AM,39.0,30.0,70,30.18,-9999.0,Calm,Calm,-,N/A,,Clear,0,2011-11-04 08:53:00
4:53 AM,37.9,30.0,73,30.18,-9999.0,WNW,4.6,-,N/A,,Clear,290,2011-11-04 09:53:00
5:53 AM,37.0,30.0,76,30.19,10.0,NNW,4.6,-,N/A,,Clear,330,2011-11-04 10:53:00
6:53 AM,37.0,30.0,76,30.19,10.0,NNW,3.5,-,N/A,,Clear,340,2011-11-04 11:53:00
7:53 AM,37.4,30.2,75,30.19,10.0,North,5.8,-,N/A,,Clear,350,2011-11-04 12:53:00
8:53 AM,44.1,32.0,63,30.23,10.0,WNW,5.8,-,N/A,,Clear,300,2011-11-04 13:53:00
9:53 AM,50.0,34.0,54,30.24,10.0,North,5.8,-,N/A,,Clear,360,2011-11-04 14:53:00
10:53 AM,55.0,39.0,55,30.24,10.0,Variable,5.8,-,N/A,,Clear,0,2011-11-04 15:53:00
11:53 AM,57.9,39.9,51,30.22,10.0,NNE,9.2,-,N/A,,Clear,20,2011-11-04 16:53:00
12:53 PM,61.0,41.0,48,30.18,10.0,North,6.9,-,N/A,,Clear,360,2011-11-04 17:53:00
1:53 PM,64.0,42.1,45,30.15,10.0,North,8.1,-,N/A,,Clear,350,2011-11-04 18:53:00
2:53 PM,64.9,42.1,43,30.12,10.0,North,8.1,-,N/A,,Clear,360,2011-11-04 19:53:00
3:53 PM,66.2,42.8,43,30.10,10.0,North,5.8,-,N/A,,Clear,360,2011-11-04 20:53:00
4:53 PM,66.0,42.1,42,30.12,10.0,NE,5.8,-,N/A,,Clear,40,2011-11-04 21:53:00
5:53 PM,63.0,43.0,48,30.12,10.0,NNE,5.8,-,N/A,,Clear,30,2011-11-04 22:53:00
6:53 PM,57.0,43.0,59,30.14,10.0,NE,4.6,-,N/A,,Clear,50,2011-11-04 23:53:00
7:53 PM,55.0,44.1,67,30.14,10.0,NE,5.8,-,N/A,,Clear,40,2011-11-05 00:53:00
8:53 PM,53.1,44.1,71,30.16,10.0,NE,9.2,-,N/A,,Clear,40,2011-11-05 01:53:00
9:53 PM,52.0,44.1,74,30.17,10.0,ENE,8.1,-,N/A,,Clear,60,2011-11-05 02:53:00
10:53 PM,50.0,44.1,80,30.18,10.0,ENE,5.8,-,N/A,,Clear,70,2011-11-05 03:53:00
11:53 PM,48.0,43.0,83,30.17,10.0,ENE,3.5,-,N/A,,Clear,60,2011-11-05 04:53:00